#timestamp,LO_Frequency,Hit,StdDev 
1679778015.4,286047000.1,N
1679778035.2,286047002.3,N
1679778055.0,286047002.4,N
1679778055.9,286047002.4,N
1679778075.8,286046999.8,N
1679778095.6,286047002.8,N
1679778115.4,286047002.7,N
1679778135.3,286047002.5,N
1679778155.1,286047000.3,N
1679778175.9,286047000.6,N
1679778195.7,286046995.7,N
1679778215.5,286046995.8,N
1679778235.4,286046996.8,N
1679778255.2,286046997.8,N
1679778275.0,286046999.5,N
1679778276.0,286046999.5,N
1679778295.8,286046999.6,N
1679778315.6,286046998.6,N
1679778335.5,286047001.0,N
1679778355.3,286047002.7,N
1679778375.1,286047004.3,N
1679778395.9,286047004.1,N
1679778415.7,286047003.3,N
1679778435.6,286047004.2,N
1679778455.4,286047004.2,N
1679778475.2,286047006.0,N
1679778495.1,286047002.6,N
1679778496.0,286047002.6,N
1679778515.8,286047001.6,N
1679778535.6,286047004.1,N
1679778555.5,286047000.1,N
1679778575.3,286047000.4,N
1679778595.2,286047000.9,N
1679778615.0,286047002.0,N
1679778615.9,286047002.0,N
1679778635.7,286047001.6,N
1679778655.6,286047002.9,N
1679778675.4,286047001.7,N
1679778695.3,286047003.1,N
1679778715.1,286047003.5,N
1679778716.0,286047003.5,N
1679778735.8,286047011.9,Y
1679778755.7,286047002.3,P
1679778775.5,286047001.1,P
1679778795.4,286047001.1,N
1679778815.2,286046998.1,Y
1679778835.0,286046998.9,P
1679778835.9,286046998.9,N
1679778855.8,286046998.5,N
1679778875.6,286047001.0,N
1679778895.4,286046999.8,N
1679778915.3,286046998.2,N
1679778935.1,286046996.9,N
1679778955.9,286046999.5,N
1679778975.7,286046998.4,N
1679778995.5,286046996.8,N
1679779015.4,286046997.4,N
1679779035.2,286046998.4,N
1679779055.0,286046999.4,N
1679779055.9,286046999.4,N
1679779075.8,286046999.3,N
1679779095.6,286047000.4,N
1679779115.5,286046998.8,N
1679779135.3,286047000.8,N
1679779155.1,286046999.2,N
1679779175.9,286046999.0,N
1679779195.7,286046999.3,N
1679779215.5,286046998.4,N
1679779235.4,286047001.0,N
1679779255.2,286046999.8,N
1679779275.1,286046999.8,N
1679779276.0,286046999.8,N
1679779295.8,286046998.6,N
1679779315.6,286047000.2,N
1679779335.5,286047002.8,N
1679779355.3,286047000.4,N
1679779375.1,286047000.7,N
1679779395.9,286046998.6,N
1679779415.7,286047000.6,N
1679779435.6,286046999.2,N
1679779455.4,286046998.5,N
1679779475.2,286047001.1,N
1679779495.1,286046999.4,N
1679779496.0,286046999.4,N
1679779515.8,286047001.2,N
1679779535.6,286046999.8,N
1679779555.5,286046999.7,N
1679779575.3,286047000.4,N
1679779595.2,286047002.1,N
1679779615.9,286047001.4,N
1679779635.7,286047002.7,N
1679779655.6,286047002.1,N
1679779675.4,286047002.6,N
1679779695.2,286047002.7,N
1679779715.1,286047000.9,N
1679779716.0,286047000.9,N
1679779735.8,286047000.8,N
1679779755.7,286046998.5,N
1679779775.5,286046998.4,N
1679779795.3,286047001.1,N
1679779815.2,286046998.5,N
1679779835.0,286046998.2,N
1679779835.9,286046998.2,N
1679779855.7,286046999.2,N
1679779875.6,286046998.4,N
1679779895.4,286046999.4,N
1679779915.3,286046997.9,N
1679779935.1,286046995.3,Y
1679779955.8,286046997.5,P
1679779975.7,286046996.8,N
1679779995.5,286046999.3,N
1679780015.3,286047001.9,N
1679780035.2,286047002.7,N
1679780055.0,286047002.8,N
1679780055.9,286047002.8,N
1679780075.8,286047002.2,N
1679780095.6,286046999.9,N
1679780115.5,286046998.2,N
1679780135.3,286047000.5,N
1679780155.1,286047001.3,N
1679780175.9,286047000.4,N
1679780195.7,286047000.0,N
1679780215.6,286046998.8,N
1679780235.4,286046999.8,N
1679780255.2,286046998.1,N
1679780275.1,286047000.3,N
1679780276.0,286047000.3,N
1679780295.8,286047001.1,N
1679780315.6,286046997.5,N
1679780335.5,286046997.4,N
1679780355.3,286046997.4,N
1679780375.2,286046996.6,N
1679780395.9,286046999.5,N
1679780415.7,286046997.0,N
1679780435.6,286046997.6,N
1679780455.4,286046997.5,N
1679780475.2,286046996.6,N
1679780495.1,286046997.2,N
1679780496.0,286046997.2,N
1679780515.8,286046998.7,N
1679780535.7,286047001.1,N
1679780555.5,286046999.3,N
1679780575.3,286046997.1,N
1679780595.2,286046997.1,N
1679780615.0,286047001.0,N
1679780615.9,286047001.0,N
1679780635.7,286047000.4,N
1679780655.6,286047000.8,N
1679780675.4,286046998.1,N
1679780695.3,286046998.9,N
1679780715.1,286046998.7,N
1679780716.0,286046998.7,N
1679780735.8,286046998.2,N
1679780755.7,286046997.0,N
1679780775.5,286046998.7,N
1679780795.4,286047000.4,N
1679780815.2,286047000.1,N
1679780835.0,286046998.2,N
1679780835.9,286046998.2,N
1679780855.8,286046999.2,N
1679780875.6,286046999.0,N
1679780895.5,286047000.3,N
1679780915.3,286047000.7,N
1679780935.1,286047001.2,N
1679780955.9,286047001.0,N
1679780975.7,286047000.5,N
1679780995.6,286047001.2,N
1679781015.4,286047000.9,N
1679781035.3,286047000.4,N
1679781055.1,286046999.7,N
1679781056.0,286046999.7,N
1679781075.8,286046999.7,N
1679781095.7,286047003.4,N
1679781115.5,286047002.7,N
1679781135.4,286047004.4,Y
1679781155.2,286047003.3,P
1679781175.0,286047002.7,N
1679781175.9,286047002.7,N
1679781195.8,286047003.6,N
1679781215.6,286047003.6,N
1679781235.5,286047004.1,Y
1679781255.3,286047002.3,P
1679781275.1,286047001.3,P
1679781295.9,286047002.1,P
1679781315.7,286046998.5,Y
1679781335.5,286046997.8,P
1679781355.4,286046997.1,N
1679781375.2,286046998.9,N
1679781395.1,286046997.5,N
1679781396.0,286046997.5,N
1679781415.8,286046997.3,N
1679781435.6,286046997.5,N
1679781455.5,286046997.5,N
1679781475.3,286046999.4,N
1679781495.2,286046999.2,N
1679781515.9,286046998.6,N
1679781535.7,286046999.5,N
1679781555.6,286046997.0,N
1679781575.4,286046996.5,N
1679781595.2,286046999.2,N
